Regional Weather Roundup
Issued by NWS

Home | Current Version | Previous Version | Graphics & Text | Print | Product List | Glossary Off
Versions: 1 2 3 4 5 6 7 8 9 10 11 12 13 14 15 16 17 18 19 20 21 22 23 24 25 26 27 28 29 30 31 32 33 34 35 36 37 38 39 40 41 42 43 44 45 46 47 48 49 50

000
ASUS43 KTOP 181308
RWRKS

WEATHER ROUNDUP FOR KANSAS
NATIONAL WEATHER SERVICE GOODLAND KS
800 AM CDT FRI AUG 18 2017

NOTE:  "FAIR" INDICATES FEW OR NO CLOUDS BELOW 12,000 FEET WITH NO
SIGNIFICANT WEATHER AND/OR OBSTRUCTIONS TO VISIBILITY.

KSZ001>006-013>018-027>032-041>047-181400-
NORTHWEST KANSAS

CITY           SKY/WX    TMP DP  RH WIND       PRES   REMARKS
GOODLAND       CLEAR     61  56  83 W12       30.07R
HAYS           MOSUNNY   64  61  90 SE3       30.03S
HILL CITY      MOSUNNY   65  60  84 CALM      30.03R
RUSSELL        PTSUNNY   65  61  87 W5        30.01R
$$

KSZ061>065-074>080-084>089-181400-
SOUTHWEST KANSAS

CITY           SKY/WX    TMP DP  RH WIND       PRES   REMARKS
DODGE CITY     SUNNY     67  56  67 SW14      30.04R
ELKHART          N/A     61  60  97 S13         N/A
GARDEN CITY    SUNNY     62  58  86 SW12      30.06R
GREAT BEND     CLOUDY    66  62  87 NE6       30.05R
LIBERAL        SUNNY     63  60  90 S9        30.09
PRATT          CLOUDY    68  58  72 NE3       30.03R
$$

KSZ066>073-081>083-090>101-181400-
SOUTHEAST KANSAS

CITY           SKY/WX    TMP DP  RH WIND       PRES   REMARKS
CHANUTE        CLOUDY    69  65  86 CALM      30.00R
COFFEYVILLE    MOSUNNY   70  69  97 S8        29.99R
HUTCHINSON     PTSUNNY   67  64  90 CALM      30.01R
MEDICINE LODGE   N/A     69  62  78 CALM      29.97R
NEWTON         CLOUDY    70  64  81 S7        30.00R
PARSONS        PTSUNNY   70  67  90 CALM      30.01R
WICHITA INTL   CLOUDY    71  64  78 SE5       29.99R
WICHITA JABRA  CLOUDY    69  63  81 S6        30.00R
WICHITA MCCONL CLOUDY    71  62  74 S5        30.00R
WINFIELD       CLOUDY    70  65  84 S5        30.00R
$$

KSZ007>012-019>026-033>040-048>060-102>105-181400-
NORTHEAST KANSAS

CITY           SKY/WX    TMP DP  RH WIND       PRES   REMARKS
CONCORDIA      CLOUDY    66  62  87 CALM      29.96S
EMPORIA        CLOUDY    67  63  87 S5        29.98R
LAWRENCE       PTSUNNY   65  64  97 SE5       29.96R
MANHATTAN      CLOUDY    68  66  93 W6        29.97R
MARYSVILLE     CLOUDY    68  61  77 SE10G16   29.90F
OLATHE IND     MOSUNNY   67  62  84 CALM      29.98R
OLATHE EXE     MOSUNNY   66  63  90 CALM      29.98R
SALINA         CLOUDY    69  63  81 SW8       30.00R
TOPEKA BILLARD PTSUNNY   66  64  93 NW8       29.99R
TOPEKA FORBES  CLOUDY    68  64  87 W8        29.98R
$$




USA.gov is the U.S. government's official web portal to all federal, state and local government web resources and services.